Location: Gleizolles
(44.4833°N, 6.7667°E)
Time: 12:04:28
(UTC+00:00)

MOS 1 - Pass Details

Date: 09 April 2020
Orbit: 879 x 891 km, 99.2° (Epoch: 05 June)

Event Time Altitude Azimuth Distance (km) Brightness Sun altitude
Rises 19:10:39 0° 165° (SSE) 3,465 7.0 -11.0°
Reaches altitude 10° 19:13:01 10° 166° (SSE) 2,532 6.3 -11.4°
Maximum altitude 19:18:40 85° 254° (WSW) 893 4.4 -12.3°
Drops below altitude 10° 19:24:23 10° 344° (NNW) 2,557 7.3 -13.2°
Sets 19:26:47 0° 345° (NNW) 3,502 8.0 -13.6°
